Terug naar catalogus

FENGYUN 1C DEB

ActiefSSO
NORAD 37429·DEBRIS·🇨🇳 China

Gelanceerd May 10, 1999 vanaf Taiyuan Satellite Launch Center

Loading…

Volgende Passages (komende 24 uur)

TLE

VerouderendSource: Space-Track

Epoch: Sep 10, 2026, 04:19 UTC

1 37429U 99025EGX 26253.18047653  .00000531  00000-0  30967-3 0  9999
2 37429  98.6619 238.0093 0102575 308.8038  50.4007 14.10016285669118

Volg FENGYUN 1C DEB in realtime met AllMySat

Download on the App Store